Stündliche Wetter Bolshie Mochily

Heute, 17 Juni, Donnerstag

Zeit Temperatur Niederschläge Wind Luftdruck Luftfeuchtigkeit
00:00 +14°C° 0 mm 3 m/S 754 mmHg 85%
01:00 +13°C° 0 mm 3 m/S 754 mmHg 85%
02:00 +12°C° 0 mm 3 m/S 755 mmHg 85%
03:00 +11°C° 0 mm 3 m/S 755 mmHg 85%
04:00 +13°C° 0 mm 2 m/S 755 mmHg 84%
05:00 +14°C° 0 mm 2 m/S 756 mmHg 83%
06:00 +15°C° 0 mm 2 m/S 756 mmHg 82%
07:00 +16°C° 0 mm 3 m/S 757 mmHg 74%
08:00 +18°C° 0 mm 3 m/S 757 mmHg 67%
09:00 +20°C° 0 mm 3 m/S 757 mmHg 59%
10:00 +21°C° 0 mm 3 m/S 757 mmHg 55%
11:00 +22°C° 0 mm 3 m/S 758 mmHg 52%
12:00 +23°C° 0 mm 4 m/S 758 mmHg 48%
13:00 +23°C° 0 mm 4 m/S 758 mmHg 49%
14:00 +23°C° 0 mm 4 m/S 758 mmHg 49%
15:00 +25°C° 0 mm 3 m/S 758 mmHg 50%
16:00 +23°C° 0 mm 4 m/S 758 mmHg 54%
17:00 +22°C° 0 mm 4 m/S 758 mmHg 59%
18:00 +21°C° 0 mm 4 m/S 759 mmHg 63%
19:00 +20°C° 0 mm 3 m/S 759 mmHg 66%
20:00 +18°C° 0 mm 3 m/S 759 mmHg 69%
21:00 +16°C° 0 mm 3 m/S 760 mmHg 72%
22:00 +15°C° 0 mm 2 m/S 760 mmHg 74%
23:00 +15°C° 0 mm 2 m/S 760 mmHg 75%

Morgen, 18 Juni, Freitag

Zeit Temperatur Niederschläge Wind Luftdruck Luftfeuchtigkeit
00:00 +14°C° 0 mm 2 m/S 760 mmHg 77%
01:00 +14°C° 0 mm 2 m/S 761 mmHg 78%
02:00 +13°C° 0 mm 2 m/S 761 mmHg 79%
03:00 +13°C° 0 mm 2 m/S 761 mmHg 81%
04:00 +14°C° 0 mm 2 m/S 761 mmHg 80%
05:00 +15°C° 0 mm 2 m/S 762 mmHg 80%
06:00 +16°C° 0 mm 1 m/S 762 mmHg 79%
07:00 +18°C° 0 mm 1 m/S 762 mmHg 73%
08:00 +20°C° 0 mm 1 m/S 762 mmHg 68%
09:00 +22°C° 0 mm 1 m/S 762 mmHg 62%
10:00 +23°C° 0 mm 1 m/S 762 mmHg 59%
11:00 +24°C° 0 mm 1 m/S 762 mmHg 55%
12:00 +24°C° 0 mm 1 m/S 762 mmHg 52%
13:00 +25°C° 0 mm 1 m/S 762 mmHg 52%
14:00 +25°C° 0 mm 1 m/S 762 mmHg 51%
15:00 +25°C° 0 mm 1 m/S 762 mmHg 51%
16:00 +25°C° 0 mm 1 m/S 761 mmHg 56%
17:00 +25°C° 0 mm 1 m/S 761 mmHg 61%
18:00 +25°C° 0 mm 1 m/S 761 mmHg 66%
19:00 +23°C° 0 mm 1 m/S 761 mmHg 70%
20:00 +21°C° 0 mm 1 m/S 761 mmHg 74%
21:00 +19°C° 0 mm 1 m/S 761 mmHg 78%
22:00 +18°C° 0 mm 1 m/S 762 mmHg 81%
23:00 +18°C° 0 mm 1 m/S 762 mmHg 84%

übermorgen, 19 Juni, Samstag

Zeit Temperatur Niederschläge Wind Luftdruck Luftfeuchtigkeit
00:00 +16°C° 0 mm 1 m/S 762 mmHg 86%
01:00 +16°C° 0 mm 1 m/S 762 mmHg 88%
02:00 +15°C° 0 mm 1 m/S 762 mmHg 89%
03:00 +15°C° 0 mm 2 m/S 762 mmHg 90%
04:00 +16°C° 0 mm 2 m/S 762 mmHg 88%
05:00 +17°C° 0 mm 2 m/S 763 mmHg 86%
06:00 +18°C° 0 mm 1 m/S 763 mmHg 84%
07:00 +20°C° 0 mm 1 m/S 763 mmHg 79%
08:00 +22°C° 0 mm 1 m/S 763 mmHg 74%
09:00 +23°C° 0 mm 1 m/S 763 mmHg 69%
10:00 +24°C° 0 mm 2 m/S 762 mmHg 66%
11:00 +25°C° 0 mm 2 m/S 762 mmHg 63%
12:00 +26°C° 0 mm 2 m/S 762 mmHg 60%
13:00 +26°C° 0 mm 2 m/S 762 mmHg 59%
14:00 +27°C° 0 mm 2 m/S 761 mmHg 59%
15:00 +27°C° 0 mm 2 m/S 761 mmHg 58%
16:00 +27°C° 0 mm 2 m/S 761 mmHg 62%
17:00 +26°C° 0 mm 2 m/S 761 mmHg 66%
18:00 +26°C° 0 mm 2 m/S 760 mmHg 70%
19:00 +24°C° 0 mm 2 m/S 760 mmHg 76%
20:00 +21°C° 0 mm 2 m/S 760 mmHg 81%
21:00 +19°C° 0 mm 2 m/S 760 mmHg 86%
22:00 +19°C° 0 mm 2 m/S 761 mmHg 88%
23:00 +18°C° 0 mm 2 m/S 761 mmHg 89%

20 Juni, Sonntag

Zeit Temperatur Niederschläge Wind Luftdruck Luftfeuchtigkeit
00:00 +17°C° 0 mm 2 m/S 761 mmHg 90%
01:00 +17°C° 0 mm 2 m/S 761 mmHg 90%
02:00 +18°C° 0 mm 1 m/S 761 mmHg 91%
03:00 +16°C° 0 mm 1 m/S 761 mmHg 91%
04:00 +18°C° 0 mm 1 m/S 761 mmHg 89%
05:00 +19°C° 0 mm 1 m/S 761 mmHg 87%
06:00 +20°C° 0 mm 1 m/S 761 mmHg 84%
07:00 +21°C° 0 mm 1 m/S 761 mmHg 79%
08:00 +23°C° 0 mm 1 m/S 761 mmHg 73%
09:00 +24°C° 0 mm 1 m/S 761 mmHg 68%
10:00 +25°C° 0 mm 1 m/S 761 mmHg 64%
11:00 +26°C° 0 mm 2 m/S 760 mmHg 60%
12:00 +27°C° 0 mm 2 m/S 760 mmHg 57%
13:00 +27°C° 0 mm 2 m/S 760 mmHg 56%
14:00 +28°C° 0 mm 2 m/S 760 mmHg 55%
15:00 +28°C° 0 mm 2 m/S 759 mmHg 53%
16:00 +28°C° 0 mm 1 m/S 759 mmHg 58%
17:00 +28°C° 0 mm 1 m/S 759 mmHg 62%
18:00 +27°C° 0 mm 1 m/S 759 mmHg 67%
19:00 +25°C° 0 mm 1 m/S 759 mmHg 71%
20:00 +23°C° 0 mm 1 m/S 759 mmHg 76%
21:00 +21°C° 0 mm 1 m/S 759 mmHg 80%
22:00 +21°C° 0 mm 1 m/S 759 mmHg 82%
23:00 +20°C° 0 mm 1 m/S 759 mmHg 83%

21 Juni, Montag

Zeit Temperatur Niederschläge Wind Luftdruck Luftfeuchtigkeit
00:00 +20°C° 0 mm 1 m/S 759 mmHg 84%
01:00 +17°C° 0 mm 0 m/S 759 mmHg 85%
02:00 +17°C° 0 mm 0 m/S 759 mmHg 86%
03:00 +17°C° 0 mm 0 m/S 759 mmHg 87%
04:00 +17°C° 0 mm 0 m/S 759 mmHg 85%
05:00 +18°C° 0 mm 0 m/S 759 mmHg 83%
06:00 +19°C° 0 mm 0 m/S 759 mmHg 81%
07:00 +21°C° 0 mm 0 m/S 759 mmHg 77%
08:00 +22°C° 0 mm 0 m/S 759 mmHg 72%
09:00 +26°C° 0 mm 1 m/S 759 mmHg 68%
10:00 +27°C° 0 mm 1 m/S 759 mmHg 64%
11:00 +28°C° 0 mm 1 m/S 759 mmHg 60%
12:00 +29°C° 0 mm 1 m/S 758 mmHg 57%
13:00 +29°C° 0 mm 1 m/S 758 mmHg 55%
14:00 +29°C° 0 mm 1 m/S 758 mmHg 54%
15:00 +30°C° 0 mm 1 m/S 758 mmHg 53%
16:00 +30°C° 0 mm 1 m/S 758 mmHg 57%
17:00 +29°C° 0 mm 1 m/S 758 mmHg 61%
18:00 +29°C° 0 mm 1 m/S 757 mmHg 65%
19:00 +27°C° 0 mm 1 m/S 757 mmHg 69%
20:00 +25°C° 0 mm 1 m/S 757 mmHg 74%
21:00 +23°C° 0 mm 1 m/S 757 mmHg 78%
22:00 +23°C° 0 mm 1 m/S 757 mmHg 79%
23:00 +22°C° 0 mm 1 m/S 757 mmHg 81%

22 Juni, Dienstag

Zeit Temperatur Niederschläge Wind Luftdruck Luftfeuchtigkeit
00:00 +21°C° 0 mm 1 m/S 758 mmHg 83%
01:00 +21°C° 0 mm 1 m/S 758 mmHg 84%
02:00 +21°C° 0 mm 1 m/S 758 mmHg 85%
03:00 +18°C° 0 mm 0 m/S 758 mmHg 86%
04:00 +21°C° 0 mm 1 m/S 758 mmHg 84%
05:00 +22°C° 0 mm 1 m/S 758 mmHg 83%
06:00 +23°C° 0 mm 1 m/S 758 mmHg 81%
07:00 +25°C° 0 mm 1 m/S 758 mmHg 76%
08:00 +26°C° 0 mm 1 m/S 758 mmHg 71%
09:00 +28°C° 0 mm 1 m/S 758 mmHg 66%
10:00 +29°C° 0 mm 1 m/S 758 mmHg 63%
11:00 +30°C° 0 mm 1 m/S 758 mmHg 59%
12:00 +31°C° 0 mm 1 m/S 758 mmHg 56%
13:00 +31°C° 0 mm 1 m/S 758 mmHg 55%
14:00 +31°C° 0 mm 1 m/S 758 mmHg 54%
15:00 +32°C° 0 mm 1 m/S 758 mmHg 53%
16:00 +31°C° 0.1 mm 2 m/S 757 mmHg 58%
17:00 +30°C° 0.1 mm 2 m/S 757 mmHg 63%
18:00 +30°C° 0.1 mm 2 m/S 756 mmHg 68%
19:00 +27°C° 1.1 mm 3 m/S 757 mmHg 76%
20:00 +25°C° 1.1 mm 3 m/S 757 mmHg 84%
21:00 +21°C° 1.1 mm 4 m/S 758 mmHg 92%
22:00 +21°C° 0.2 mm 3 m/S 758 mmHg 91%
23:00 +20°C° 0.2 mm 2 m/S 758 mmHg 89%
Mehr zeigen

Wir brauchen deine Erlaubnis

Meteoprog und unser Service Anbieter werden persönliche Daten aufbewahren, so wie Cookies, Geräte Bezeichnung oder ähnliche Technologien von deinem Gerät und Prozess, so wie Persönliche Daten Inhalte und Werbungen, genauso wie social Media und den Verkehr zu analysieren.

  • Aufbewahrung und/oder Zugang zu deiner Geräte Informationen.

    Cookies, Geräte Bezeichnung oder andere Informationen, können aufbewahrt oder Zugang zu deinem Gerät erhalten, für den Grund, der oben angegeben wird.

  • Personalisierte Werbung und Inhalte, Messungen, Einblick in das Publikum und Produkt Entwicklung.

    Werbungen und Inhalte können personalisiert werden, basierend auf ein Profil. Mehr Daten können besser personalisierte Werbungen und Inhalte hinzufügen. Werbung und Inhalte können gezeigt und gemessen werden. Einblicke über das Publikum, welche die Werbung gesehen haben und den Inhalt, können abgeleitet werden. So wie Daten können genutzt werden, um es zu verbessern oder die Benutzer Erfahrung zu verbessern das System und die Software.

Wenn du “Ich stimme zu” klickst, erlaubst du uns, die Cookies zu benutzen die Geräte Bezeichnung, den Web oder ähnliche Technologien zu benutzen. Deine Settings, können in deinem Gerät bei deinem Browser geändert werden.

Für den bestimmten Zweck, berechtigten Interessen beruhen darauf, mehr als auf den Inhalt. Du kannst mehr darüber in unseren Privaten und Cookie Politik lesen.